When you browse on this site, cookies collect data to enhance your experience and personalize the content and advertising you see.
Visit our Privacy Policy to learn more. By continuing to use the site, you agree to this use of cookies and data.
  • In Hungary
  • List of Countries
  • For 7 days
  • Water Temperature
  • Satellite Maps
  • Weather Map
  • News
  • Weather Widgets
  • user-avatar
    Login

    Hourly Weather Karatamak

    Today, 19 November, Monday

    Time Temperature Precipitation Wind Pressure Humidity
    00:00 -2°C° 0.1 mm 2 mps 758 mmHg 79%
    01:00 -2°C° 0.1 mm 2 mps 758 mmHg 82%
    02:00 -2°C° 0.1 mm 2 mps 758 mmHg 84%
    03:00 -2°C° 0.1 mm 2 mps 759 mmHg 86%
    04:00 -2°C° 0.1 mm 2 mps 759 mmHg 88%
    05:00 -2°C° 0 mm 2 mps 759 mmHg 89%
    06:00 -2°C° 0 mm 2 mps 759 mmHg 89%
    07:00 -2°C° 0 mm 2 mps 759 mmHg 90%
    08:00 -2°C° 0.1 mm 2 mps 759 mmHg 90%
    09:00 -2°C° 0.1 mm 2 mps 759 mmHg 90%
    10:00 -2°C° 0.1 mm 2 mps 759 mmHg 90%
    11:00 -1°C° 0.1 mm 2 mps 759 mmHg 90%
    12:00 -1°C° 0.1 mm 2 mps 760 mmHg 90%
    13:00 -1°C° 0.1 mm 2 mps 760 mmHg 90%
    14:00 -1°C° 0.2 mm 2 mps 760 mmHg 92%
    15:00 -1°C° 0.2 mm 2 mps 760 mmHg 94%
    16:00 -2°C° 0.2 mm 2 mps 760 mmHg 96%
    17:00 0°C° 0.3 mm 1 mps 760 mmHg 96%
    18:00 0°C° 0.3 mm 1 mps 760 mmHg 97%
    19:00 0°C° 0.3 mm 1 mps 759 mmHg 97%
    20:00 0°C° 0.2 mm 1 mps 759 mmHg 97%
    21:00 0°C° 0.2 mm 1 mps 759 mmHg 97%
    22:00 0°C° 0.2 mm 1 mps 759 mmHg 97%
    23:00 0°C° 0.2 mm 1 mps 759 mmHg 97%

    Tomorrow, 20 November, Tuesday

    Time Temperature Precipitation Wind Pressure Humidity
    00:00 0°C° 0.2 mm 1 mps 759 mmHg 97%
    01:00 0°C° 0.2 mm 1 mps 759 mmHg 97%
    02:00 0°C° 0.2 mm 1 mps 759 mmHg 97%
    03:00 0°C° 0.2 mm 1 mps 759 mmHg 97%
    04:00 0°C° 0.2 mm 1 mps 759 mmHg 97%
    05:00 0°C° 0.1 mm 1 mps 759 mmHg 97%
    06:00 0°C° 0.1 mm 1 mps 758 mmHg 96%
    07:00 0°C° 0.1 mm 1 mps 758 mmHg 96%
    08:00 0°C° 0.1 mm 1 mps 758 mmHg 95%
    09:00 0°C° 0.1 mm 1 mps 758 mmHg 95%
    10:00 0°C° 0.1 mm 1 mps 758 mmHg 94%
    11:00 0°C° 0 mm 1 mps 758 mmHg 93%
    12:00 0°C° 0 mm 1 mps 758 mmHg 92%
    13:00 +1°C° 0 mm 1 mps 758 mmHg 92%
    14:00 0°C° 0 mm 1 mps 757 mmHg 92%
    15:00 0°C° 0 mm 1 mps 757 mmHg 93%
    16:00 0°C° 0 mm 1 mps 757 mmHg 94%
    17:00 -2°C° 0 mm 2 mps 757 mmHg 94%
    18:00 -3°C° 0 mm 2 mps 756 mmHg 94%
    19:00 -3°C° 0 mm 2 mps 756 mmHg 94%
    20:00 -4°C° 0 mm 3 mps 756 mmHg 93%
    21:00 -5°C° 0 mm 3 mps 755 mmHg 92%
    22:00 -5°C° 0 mm 3 mps 755 mmHg 91%
    23:00 -5°C° 0 mm 4 mps 755 mmHg 89%

    Day after tomorrow, 21 November, Wednesday

    Time Temperature Precipitation Wind Pressure Humidity
    00:00 -5°C° 0 mm 4 mps 754 mmHg 87%
    01:00 -5°C° 0 mm 4 mps 754 mmHg 86%
    02:00 -5°C° 0 mm 4 mps 753 mmHg 85%
    03:00 -6°C° 0 mm 5 mps 753 mmHg 85%
    04:00 -6°C° 0 mm 5 mps 752 mmHg 84%
    05:00 -6°C° 0.2 mm 5 mps 751 mmHg 86%
    06:00 -6°C° 0.2 mm 5 mps 751 mmHg 88%
    07:00 -6°C° 0.2 mm 6 mps 750 mmHg 90%
    08:00 -6°C° 0.3 mm 6 mps 749 mmHg 90%
    09:00 -6°C° 0.3 mm 6 mps 749 mmHg 90%
    10:00 -6°C° 0.3 mm 6 mps 748 mmHg 89%
    11:00 -5°C° 0.4 mm 6 mps 748 mmHg 90%
    12:00 -5°C° 0.4 mm 6 mps 747 mmHg 90%
    13:00 -5°C° 0.4 mm 6 mps 747 mmHg 90%
    14:00 -5°C° 0.2 mm 6 mps 746 mmHg 89%
    15:00 -5°C° 0.2 mm 6 mps 746 mmHg 89%
    16:00 -5°C° 0.2 mm 5 mps 745 mmHg 88%
    17:00 -5°C° 0.1 mm 6 mps 746 mmHg 87%
    18:00 -5°C° 0.1 mm 6 mps 746 mmHg 86%
    19:00 -5°C° 0.1 mm 6 mps 746 mmHg 85%
    20:00 -6°C° 0.1 mm 5 mps 746 mmHg 85%
    21:00 -6°C° 0.1 mm 5 mps 746 mmHg 85%
    22:00 -7°C° 0.1 mm 5 mps 746 mmHg 85%
    23:00 -8°C° 0 mm 4 mps 746 mmHg 86%

    22 November, Thursday

    Time Temperature Precipitation Wind Pressure Humidity
    00:00 -9°C° 0 mm 4 mps 747 mmHg 87%
    01:00 -9°C° 0 mm 3 mps 747 mmHg 88%
    02:00 -9°C° 0 mm 3 mps 747 mmHg 89%
    03:00 -9°C° 0 mm 3 mps 747 mmHg 90%
    04:00 -9°C° 0 mm 3 mps 747 mmHg 91%
    05:00 -9°C° 0 mm 3 mps 747 mmHg 91%
    06:00 -10°C° 0 mm 3 mps 746 mmHg 91%
    07:00 -11°C° 0 mm 4 mps 746 mmHg 91%
    08:00 -11°C° 0 mm 4 mps 745 mmHg 91%
    09:00 -11°C° 0 mm 5 mps 745 mmHg 91%
    10:00 -11°C° 0 mm 5 mps 745 mmHg 91%
    11:00 -10°C° 0.1 mm 6 mps 744 mmHg 90%
    12:00 -11°C° 0.1 mm 7 mps 743 mmHg 90%
    13:00 -9°C° 0.1 mm 7 mps 742 mmHg 89%
    14:00 -9°C° 0.5 mm 7 mps 741 mmHg 89%
    15:00 -9°C° 0.5 mm 7 mps 740 mmHg 90%
    16:00 -8°C° 0.5 mm 7 mps 740 mmHg 90%
    17:00 -8°C° 0.4 mm 7 mps 740 mmHg 90%
    18:00 -8°C° 0.4 mm 6 mps 739 mmHg 89%
    19:00 -8°C° 0.4 mm 6 mps 739 mmHg 88%
    20:00 -9°C° 0.1 mm 6 mps 740 mmHg 86%
    21:00 -11°C° 0.1 mm 6 mps 740 mmHg 84%
    22:00 -12°C° 0.1 mm 5 mps 740 mmHg 82%
    23:00 -13°C° 0 mm 5 mps 741 mmHg 80%

    23 November, Friday

    Time Temperature Precipitation Wind Pressure Humidity
    00:00 -14°C° 0 mm 5 mps 742 mmHg 78%
    01:00 -14°C° 0 mm 5 mps 742 mmHg 77%
    02:00 -15°C° 0 mm 5 mps 743 mmHg 77%
    03:00 -15°C° 0 mm 5 mps 744 mmHg 78%
    04:00 -16°C° 0 mm 4 mps 745 mmHg 78%
    05:00 -16°C° 0 mm 4 mps 745 mmHg 80%
    06:00 -17°C° 0 mm 4 mps 746 mmHg 82%
    07:00 -16°C° 0 mm 3 mps 746 mmHg 85%
    08:00 -16°C° 0 mm 3 mps 747 mmHg 86%
    09:00 -15°C° 0 mm 3 mps 748 mmHg 88%
    10:00 -15°C° 0 mm 3 mps 748 mmHg 89%
    11:00 -14°C° 0 mm 3 mps 748 mmHg 88%
    12:00 -13°C° 0 mm 2 mps 749 mmHg 87%
    13:00 -12°C° 0 mm 2 mps 749 mmHg 86%
    14:00 -12°C° 0 mm 2 mps 750 mmHg 87%
    15:00 -13°C° 0 mm 2 mps 750 mmHg 88%
    16:00 -13°C° 0 mm 2 mps 751 mmHg 89%
    17:00 -14°C° 0 mm 3 mps 751 mmHg 89%
    18:00 -14°C° 0 mm 3 mps 751 mmHg 89%
    19:00 -15°C° 0 mm 3 mps 752 mmHg 88%
    20:00 -15°C° 0 mm 3 mps 752 mmHg 89%
    21:00 -15°C° 0 mm 3 mps 752 mmHg 89%
    22:00 -16°C° 0 mm 3 mps 752 mmHg 90%
    23:00 -15°C° 0 mm 3 mps 752 mmHg 91%

    24 November, Saturday

    Time Temperature Precipitation Wind Pressure Humidity
    00:00 -15°C° 0 mm 4 mps 752 mmHg 93%
    01:00 -14°C° 0 mm 4 mps 752 mmHg 94%
    02:00 -14°C° 0 mm 5 mps 751 mmHg 93%
    03:00 -13°C° 0 mm 5 mps 751 mmHg 92%
    04:00 -12°C° 0 mm 6 mps 750 mmHg 91%
    05:00 -13°C° 0 mm 7 mps 749 mmHg 90%
    06:00 -13°C° 0 mm 7 mps 749 mmHg 90%
    07:00 -13°C° 0 mm 8 mps 748 mmHg 89%
    08:00 -12°C° 0.1 mm 8 mps 747 mmHg 88%
    09:00 -11°C° 0.1 mm 9 mps 747 mmHg 87%
    10:00 -10°C° 0.1 mm 9 mps 746 mmHg 86%
    11:00 -9°C° 0.1 mm 9 mps 745 mmHg 85%
    12:00 -9°C° 0.1 mm 9 mps 745 mmHg 85%
    13:00 -8°C° 0.1 mm 9 mps 744 mmHg 84%
    14:00 -8°C° 0.2 mm 9 mps 745 mmHg 85%
    15:00 -6°C° 0.2 mm 8 mps 745 mmHg 85%
    16:00 -6°C° 0.2 mm 8 mps 745 mmHg 86%
    17:00 -6°C° 0.1 mm 8 mps 745 mmHg 86%
    18:00 -6°C° 0.1 mm 8 mps 746 mmHg 86%
    19:00 -5°C° 0.1 mm 8 mps 746 mmHg 86%
    20:00 -5°C° 0.1 mm 8 mps 746 mmHg 86%
    21:00 -5°C° 0.1 mm 8 mps 746 mmHg 86%
    22:00 -5°C° 0.1 mm 8 mps 747 mmHg 86%
    23:00 -4°C° 0.1 mm 7 mps 747 mmHg 87%
    Show more